Stations météo

réclame
Mon MeteoGroup
Marham, Grande-Bretagne (3482): Température de l'air & dewpoint: 13.08.2019 17:00:00 - 19.08.2019 17:00:00 (BST)Marham, Grande-Bretagne (3482): Température de l'air -20cm & Température de l'air -100cm: 13.08.2019 17:00:00 - 19.08.2019 17:00:00 (BST)Marham, Grande-Bretagne (3482): Vitesse du vent & gusts: 13.08.2019 17:00:00 - 19.08.2019 17:00:00 (BST)Marham, Grande-Bretagne (3482): Direction du vent: 13.08.2019 17:00:00 - 19.08.2019 17:00:00 (BST)Marham, Grande-Bretagne (3482): reduced air pressure: 13.08.2019 17:00:00 - 19.08.2019 17:00:00 (BST)Marham, Grande-Bretagne (3482): visibility: 13.08.2019 17:00:00 - 19.08.2019 17:00:00 (BST)Marham, Grande-Bretagne (3482): Quantités de précipitations: 13.08.2019 17:00:00 - 19.08.2019 17:00:00 (BST)
Date & Time tt [°C] td [°C] tt -20cm [°C] tt -100cm [°C] ff [km/h] ff [knt] fx [km/h] fx [knt] dd ppp [hPa] vv [km] rr [mm]
19.08.2019 17:00:00 17,0 14,2 - - 13 7 48 26 SSW 1013,6 10 1,2
19.08.2019 16:00:00 17,1 11,6 - - 22 12 - - SW 1013,1 10 0,0
19.08.2019 15:00:00 19,3 11,0 - - 22 12 - - SW 1012,7 10 0,0
19.08.2019 14:00:00 18,5 11,4 - - 18 10 - - SW 1012,6 10 0,0
19.08.2019 13:00:00 17,0 11,2 - - 18 10 - - SSW 1012,4 10 0,0
19.08.2019 12:00:00 17,5 11,8 - - 21 11 - - SW 1011,9 10 0,0
19.08.2019 11:00:00 16,4 12,7 - - 21 11 - - WSW 1011,8 20 0,0
19.08.2019 10:00:00 15,8 12,1 16,4 16,2 24 13 - - WSW 1011,4 10 0,0
19.08.2019 09:00:00 15,5 12,0 - - 24 13 - - SW 1010,7 22 0,0
19.08.2019 08:00:00 13,5 11,2 - - 22 12 - - SSW 1010,3 10 0,0
19.08.2019 07:00:00 12,1 10,7 - - 16 9 - - SSW 1010,0 10 0,0
19.08.2019 06:00:00 11,4 10,3 - - 16 9 - - SSW 1009,4 10 0,0
19.08.2019 05:00:00 11,3 10,0 - - 15 8 - - SSW 1009,0 10 0,0
19.08.2019 04:00:00 11,6 10,1 - - 18 10 - - SSW 1008,4 10 0,0
19.08.2019 03:00:00 11,9 10,0 - - 16 9 - - SSW 1008,3 19 0,0
19.08.2019 02:00:00 11,8 9,8 - - 16 9 - - SSW 1008,0 19 0,0
19.08.2019 01:00:00 12,4 10,0 - - 16 9 - - SSW 1007,8 10 0,0
19.08.2019 00:00:00 13,0 9,7 - - 18 10 - - SSW 1007,4 10 0,0
18.08.2019 23:00:00 14,2 9,3 - - 18 10 - - SW 1007,0 10 0,0
18.08.2019 22:00:00 14,8 8,9 - - 21 11 - - SW 1006,3 10 0,0
18.08.2019 21:00:00 16,1 8,7 - - 22 12 - - SW 1005,7 10 0,0
18.08.2019 20:00:00 18,0 9,4 - - 24 13 - - SW 1004,9 20 0,0
18.08.2019 19:00:00 19,7 8,6 - - 28 15 - - SW 1004,2 23 0,0
18.08.2019 18:00:00 19,6 9,6 - - 26 14 - - WSW 1004,1 22 0,0
18.08.2019 17:00:00 20,4 8,3 - - 31 17 - - WSW 1003,8 24 0,0
18.08.2019 16:00:00 20,9 10,1 - - 29 16 46 25 SW 1003,4 25 0,0
18.08.2019 15:00:00 20,2 11,0 - - 29 16 46 25 SW 1003,2 23 0,0
18.08.2019 14:00:00 18,5 10,9 - - 31 17 46 25 SW 1003,2 22 0,0
18.08.2019 13:00:00 17,3 12,0 - - 29 16 - - SSW 1002,9 10 0,0
18.08.2019 12:00:00 15,1 13,6 - - 18 10 - - SSW 1002,9 17 1,8
18.08.2019 11:00:00 17,1 11,6 - - 22 12 - - WSW 1002,5 17 0,0
18.08.2019 10:00:00 16,6 12,6 16,5 16,2 21 11 - - SW 1002,4 10 0,0
18.08.2019 09:00:00 15,8 12,8 - - 15 8 - - SW 1001,9 16 0,0
18.08.2019 08:00:00 14,7 13,8 - - 15 8 - - SSW 1002,1 12 0,0
18.08.2019 07:00:00 13,9 13,4 - - 9 5 - - S 1002,1 9 0,2
18.08.2019 06:00:00 13,7 13,0 - - 9 5 - - S 1002,4 8 0,4
18.08.2019 05:00:00 13,7 11,8 - - 9 5 - - SSW 1002,6 9 0,0
18.08.2019 04:00:00 14,2 10,7 - - 11 6 - - SSW 1002,8 20 0,0
18.08.2019 03:00:00 14,6 10,0 - - 13 7 - - SSW 1002,9 22 0,0
18.08.2019 02:00:00 14,7 9,9 - - 13 7 - - SSW 1003,7 23 0,0
18.08.2019 01:00:00 14,7 9,6 - - 11 6 - - SSW 1003,0 24 0,0
18.08.2019 00:00:00 15,2 9,7 - - 11 6 - - SSW 1004,1 10 0,0
17.08.2019 23:00:00 16,2 9,9 - - 16 9 - - SW 1004,0 10 0,0
17.08.2019 22:00:00 15,3 9,7 - - 9 5 - - SSW 1003,8 10 0,0
17.08.2019 21:00:00 15,4 8,4 - - 11 6 - - SW 1003,8 25 0,0
17.08.2019 20:00:00 17,8 8,3 - - 15 8 - - SW 1003,6 25 0,0
17.08.2019 19:00:00 20,2 7,5 - - 21 11 - - SW 1003,3 26 0,0
17.08.2019 18:00:00 21,2 6,3 - - 29 16 - - WSW 1003,0 27 0,0
17.08.2019 17:00:00 21,0 10,2 - - 24 13 - - WSW 1003,2 10 0,0
17.08.2019 16:00:00 20,5 10,5 - - 31 17 46 25 WSW 1003,0 27 0,0
17.08.2019 15:00:00 21,7 11,1 - - 35 19 48 26 WSW 1002,9 29 0,0
17.08.2019 14:00:00 18,9 11,8 - - 34 18 46 25 WSW 1003,0 10 0,0
17.08.2019 13:00:00 18,6 13,4 - - 26 14 50 27 WSW 1002,9 24 0,0
17.08.2019 12:00:00 19,2 12,9 - - 31 17 46 25 SW 1003,0 22 0,0
17.08.2019 11:00:00 18,9 13,4 - - 31 17 46 25 SW 1003,0 10 0,0
17.08.2019 10:00:00 18,1 13,5 16,2 16,4 28 15 - - SW 1002,7 20 0,0
17.08.2019 09:00:00 16,9 13,8 - - 26 14 - - SW 1002,8 19 0,0
17.08.2019 08:00:00 15,2 13,1 - - 24 13 - - SW 1002,5 19 0,0
17.08.2019 07:00:00 14,0 12,3 - - 21 11 - - SW 1002,3 20 0,0
17.08.2019 06:00:00 13,6 12,4 - - 15 8 - - SW 1002,0 22 0,0
17.08.2019 05:00:00 14,2 12,4 - - 15 8 - - SW 1001,9 22 0,0
17.08.2019 04:00:00 16,5 15,4 - - 22 12 - - SW 1001,6 28 0,0
17.08.2019 03:00:00 16,3 15,7 - - 21 11 - - SW 1001,2 24 0,0
17.08.2019 02:00:00 16,0 15,1 - - 26 14 - - SSW 1001,2 25 0,0
17.08.2019 01:00:00 16,3 15,4 - - 28 15 46 25 SSW 1001,5 26 0,0
17.08.2019 00:00:00 16,1 15,4 - - 34 18 - - SSW 1001,9 25 0,8
16.08.2019 23:00:00 15,7 15,3 - - 34 18 48 26 S 1002,3 2,8 0,8
16.08.2019 22:00:00 15,4 14,9 - - 29 16 46 25 S 1002,9 7 1,8
16.08.2019 21:00:00 15,3 14,9 - - 37 20 48 26 S 1003,5 5 1,4
16.08.2019 20:00:00 15,2 14,4 - - 28 15 - - S 1004,1 6 1,6
16.08.2019 19:00:00 15,0 14,3 - - 28 15 - - S 1005,1 6 1,2
16.08.2019 18:00:00 15,2 14,1 - - 26 14 - - S 1006,4 9 0,8
16.08.2019 17:00:00 15,8 13,4 - - 31 17 50 27 S 1007,3 10 0,0
16.08.2019 16:00:00 15,9 13,5 - - 34 18 50 27 S 1008,0 12 0,4
16.08.2019 15:00:00 17,2 12,7 - - 34 18 50 27 SSW 1008,6 12 0,0
16.08.2019 14:00:00 18,8 11,7 - - 35 19 52 28 S 1009,1 10 0,0
16.08.2019 13:00:00 17,3 13,0 - - 35 19 48 26 SSW 1010,0 15 0,0
16.08.2019 12:00:00 17,4 12,0 - - 34 18 48 26 S 1010,5 10 0,0
16.08.2019 11:00:00 17,7 11,7 - - 26 14 - - S 1011,2 10 0,0
16.08.2019 10:00:00 17,1 12,8 16,4 16,5 22 12 - - S 1012,2 10 0,0
16.08.2019 09:00:00 14,8 12,8 - - 16 9 - - S 1013,2 10 0,0
16.08.2019 08:00:00 13,5 12,1 - - 15 8 - - S 1013,7 10 0,0
16.08.2019 07:00:00 11,7 10,4 - - 9 5 - - S 1013,9 10 0,0
16.08.2019 06:00:00 10,7 9,3 - - 9 5 - - S 1014,5 10 0,0
16.08.2019 05:00:00 10,3 9,0 - - 9 5 - - S 1014,8 10 0,0
16.08.2019 04:00:00 10,3 8,8 - - 5 3 - - SE 1015,3 10 0,0
16.08.2019 03:00:00 9,4 7,6 - - 8 4 - - S 1015,9 19 0,0
16.08.2019 02:00:00 10,0 7,7 - - 5 3 - - S 1016,0 24 0,0
16.08.2019 01:00:00 10,5 8,0 - - 9 5 - - SW 1016,1 20 0,0
16.08.2019 00:00:00 10,1 7,5 - - 8 4 - - WSW 1016,4 10 0,0
15.08.2019 23:00:00 12,3 8,0 - - 5 3 - - W 1016,1 10 0,0
15.08.2019 22:00:00 12,3 8,4 - - 8 4 - - W 1015,7 10 0,0
15.08.2019 21:00:00 14,2 8,4 - - 11 6 - - W 1015,4 20 0,0
15.08.2019 20:00:00 16,6 8,4 - - 16 9 - - WNW 1015,0 10 0,0
15.08.2019 19:00:00 18,3 8,6 - - 21 11 - - WNW 1014,3 10 0,0
15.08.2019 18:00:00 18,3 7,9 - - 28 15 46 25 WNW 1013,4 10 0,0
15.08.2019 17:00:00 19,1 7,7 - - 28 15 48 26 W 1012,6 10 0,0
15.08.2019 16:00:00 19,2 7,9 - - 34 18 52 28 W 1012,0 10 0,0
15.08.2019 15:00:00 18,8 9,4 - - 35 19 54 29 W 1011,4 10 0,0
15.08.2019 14:00:00 18,0 10,3 - - 31 17 54 29 WNW 1010,7 10 0,0
15.08.2019 13:00:00 18,5 13,1 - - 28 15 52 28 W 1009,9 10 0,0
15.08.2019 12:00:00 17,1 12,3 - - 37 20 52 28 W 1009,3 8 0,0
15.08.2019 11:00:00 17,0 12,4 - - 35 19 48 26 W 1008,6 10 0,0
15.08.2019 10:00:00 17,3 13,2 16,7 16,7 28 15 - - W 1008,0 10 0,0
15.08.2019 09:00:00 16,3 14,0 - - 22 12 - - WSW 1007,6 20 0,0
15.08.2019 08:00:00 15,5 13,7 - - 24 13 - - WSW 1007,0 20 0,0
15.08.2019 07:00:00 14,7 13,3 - - 22 12 - - SW 1006,7 10 0,0
15.08.2019 06:00:00 14,1 13,0 - - 18 10 - - SW 1006,3 10 0,0
15.08.2019 05:00:00 14,0 13,2 - - 15 8 - - WSW 1005,9 10 0,0
15.08.2019 04:00:00 15,2 14,4 - - 11 6 - - W 1005,6 10 0,2
15.08.2019 03:00:00 16,5 15,3 - - 24 13 - - WSW 1005,3 23 0,0
15.08.2019 02:00:00 16,6 15,7 - - 21 11 - - SW 1005,3 24 0,0
15.08.2019 01:00:00 16,4 15,7 - - 16 9 - - SSW 1005,5 10 0,0
15.08.2019 00:00:00 16,4 15,8 - - 16 9 - - SSW 1005,7 10 0,2
14.08.2019 23:00:00 16,3 15,8 - - 18 10 - - SSW 1005,7 7 0,6
14.08.2019 22:00:00 16,4 15,6 - - 18 10 - - SSW 1005,9 10 0,0
14.08.2019 21:00:00 16,6 15,4 - - 22 12 - - S 1006,1 10 0,0
14.08.2019 20:00:00 16,7 15,3 - - 26 14 - - S 1006,3 10 0,0
14.08.2019 19:00:00 16,2 15,1 - - 22 12 - - S 1006,9 10 0,0
14.08.2019 18:00:00 15,6 14,9 - - 21 11 - - S 1007,5 10 0,2
14.08.2019 17:00:00 14,3 13,8 - - 22 12 - - SSE 1008,3 4,5 1,6
14.08.2019 16:00:00 14,2 13,6 - - 24 13 - - SSE 1009,6 5 2,6
14.08.2019 15:00:00 14,2 13,5 - - 29 16 - - S 1010,8 5 2,6
14.08.2019 14:00:00 14,7 13,5 - - 21 11 - - S 1011,6 8 0,8
14.08.2019 13:00:00 14,7 13,3 - - 21 11 48 26 S 1012,5 10 0,2
14.08.2019 12:00:00 17,8 11,5 - - 37 20 48 26 SSW 1012,4 10 0,0
14.08.2019 11:00:00 17,7 11,6 - - 28 15 - - SSW 1013,0 10 0,0
14.08.2019 10:00:00 17,6 12,7 16,7 16,7 21 11 - - S 1013,7 15 0,0
14.08.2019 09:00:00 15,8 13,0 - - 16 9 - - S 1014,1 10 0,0
14.08.2019 08:00:00 13,0 11,2 - - 8 4 - - S 1014,6 10 0,0
14.08.2019 07:00:00 11,9 9,9 - - 11 6 - - S 1015,0 10 0,0
14.08.2019 06:00:00 11,0 8,4 - - 5 3 - - SSE 1015,0 10 0,0
14.08.2019 05:00:00 10,4 7,7 - - 8 4 - - S 1015,2 10 0,0
14.08.2019 04:00:00 10,1 7,5 - - 4 2 - - SSE 1015,5 10 0,0
14.08.2019 03:00:00 10,1 7,8 - - 8 4 - - SSE 1015,9 22 0,0
14.08.2019 02:00:00 10,2 8,4 - - 8 4 - - S 1016,2 19 0,0
14.08.2019 01:00:00 9,8 7,1 - - 5 3 - - ESE 1016,3 10 0,0
14.08.2019 00:00:00 11,2 9,0 - - 2 1 - - SE 1016,6 10 0,0
13.08.2019 23:00:00 11,3 8,5 - - 2 1 - - S 1016,5 10 0,0
13.08.2019 22:00:00 12,7 8,6 - - 5 3 - - SE 1016,5 10 0,0
13.08.2019 21:00:00 15,2 8,4 - - 9 5 - - SE 1016,6 10 0,0
13.08.2019 20:00:00 15,9 8,5 - - 5 3 - - NNE 1016,3 10 0,0
13.08.2019 19:00:00 18,2 8,5 - - 5 3 - - NNW 1016,1 10 0,0
13.08.2019 18:00:00 18,3 8,4 - - 15 8 - - N 1016,1 10 0,0
13.08.2019 17:00:00 18,5 8,3 - - 21 11 - - WNW 1015,9 10 0,0

tt = Température de l'air
td = dewpoint
tt -20cm = Température de l'air -20cm
tt -100cm = Température de l'air -100cm
ff = Vitesse du vent
fx = gusts
dd = Direction du vent
ppp = reduced air pressure
vv = visibility
rr = Quantités de précipitations

stations d'obs. à proximité